Weather History for North Padre Island, TX

Change the Weather History Date:

Monday, March 4, 2013

  Actual Average Record
Temperature  
Mean Temperature 67 °F -  
Max Temperature 68 °F - - ()
Min Temperature 66 °F - - ()
Cooling Degree Days 2    
Growing Degree Days 17 (Base 50)    
Moisture  
Dew Point 60 °F    
Average Humidity 81    
Maximum Humidity 88    
Minimum Humidity 64    
Precipitation  
Precipitation 0.00 in - - ()
Sea Level Pressure  
Sea Level Pressure 29.90 in    
Wind  
Wind Speed 26 mph (SSE)    
Max Wind Speed 31 mph    
Max Gust Speed 37 mph    
Visibility 6 miles    
Events      
T = Trace of Precipitation, MM = Missing Value Source: NWS Daily Summary

Daily Weather History Graph

Daily Weather History Graph

Search for Another Location

Airport:

Trip Planner

Search our weather history database for the weather conditions in past years. The results will help you decide how hot, cold, wet, or windy it might be!

Date:

Astronomy

Mar. 04, 2013 Rise Set
Actual Time 6:48 AM CST 6:30 PM CST
Civil Twilight 6:25 AM CST 6:54 PM CST
Nautical Twilight 5:58 AM CST 7:20 PM CST
Astronomical Twilight 5:31 AM CST 7:47 PM CST
Moon 12:37 AM CST (3/4) 11:36 AM CST (3/4)
Length of Visible Light 12h 28m
Length of Day
11h 42m
Waning Gibbous, 52% of the Moon is Illuminated
Mar 4
Waning Gibbous
Mar 4
Last Quarter
Mar 11
New
Mar 19
First Quarter
Mar 27
Full

Hourly Weather History & Observations

Time (CST) Temp. Dew Point Humidity Pressure Visibility Wind Dir Wind Speed Gust Speed Precip Events Conditions
12:15 AM 66.2 °F 53.6 °F 64% 30.04 in 10.0 mi SSE 26.5 mph - N/A   Clear
12:35 AM 66.2 °F 53.6 °F 64% 30.03 in 10.0 mi SSE 28.8 mph - N/A   Clear
12:55 AM 66.2 °F 55.4 °F 68% 30.02 in 10.0 mi SSE 27.6 mph - N/A   Clear
1:15 AM 66.2 °F 55.4 °F 68% 30.02 in 10.0 mi SSE 27.6 mph - N/A   Clear
1:35 AM 66.2 °F 55.4 °F 68% 30.00 in 10.0 mi SSE 27.6 mph - N/A   Clear
1:55 AM 66.2 °F 55.4 °F 68% 30.00 in 10.0 mi SSE 28.8 mph - N/A   Clear
2:15 AM 66.2 °F 55.4 °F 68% 29.99 in 10.0 mi SSE 29.9 mph - N/A   Clear
2:35 AM 66.2 °F 57.2 °F 73% 29.98 in 10.0 mi South 27.6 mph - N/A   Clear
2:55 AM 66.2 °F 57.2 °F 73% 29.97 in 10.0 mi SSE 26.5 mph - N/A   Clear
3:15 AM 66.2 °F 57.2 °F 73% 29.97 in 10.0 mi South 26.5 mph - N/A   Clear
3:35 AM 66.2 °F 57.2 °F 73% 29.96 in 10.0 mi South 25.3 mph - N/A   Clear
3:55 AM 66.2 °F 59.0 °F 78% 29.96 in 10.0 mi South 25.3 mph - N/A   Clear
4:15 AM 66.2 °F 59.0 °F 78% 29.95 in 10.0 mi South 24.2 mph 31.1 mph N/A   Clear
4:35 AM 66.2 °F 59.0 °F 78% 29.95 in 9.0 mi South 26.5 mph - N/A   Clear
4:55 AM 66.2 °F 59.0 °F 78% 29.95 in 9.0 mi South 28.8 mph - N/A   Clear
5:15 AM 66.2 °F 59.0 °F 78% 29.95 in 8.0 mi South 25.3 mph - N/A   Clear
5:35 AM 66.2 °F 59.0 °F 78% 29.95 in 8.0 mi South 24.2 mph 31.1 mph N/A   Partly Cloudy
6:15 AM 66.2 °F 59.0 °F 78% 29.95 in 8.0 mi South 24.2 mph - N/A   Partly Cloudy
6:35 AM 66.2 °F 59.0 °F 78% 29.96 in 8.0 mi South 23.0 mph - N/A   Clear
6:55 AM 66.2 °F 60.8 °F 83% 29.95 in 6.0 mi South 23.0 mph - N/A   Haze
7:15 AM 66.2 °F 60.8 °F 83% 29.95 in 6.0 mi South 24.2 mph - N/A   Haze
7:35 AM 66.2 °F 60.8 °F 83% 29.95 in 5.0 mi South 25.3 mph - N/A   Haze
7:55 AM 66.2 °F 60.8 °F 83% 29.95 in 6.0 mi South 25.3 mph 31.1 mph N/A   Haze
8:15 AM 66.2 °F 60.8 °F 83% 29.96 in 6.0 mi South 24.2 mph - N/A   Haze
8:35 AM 66.2 °F 60.8 °F 83% 29.96 in 6.0 mi South 24.2 mph - N/A   Haze
8:55 AM 66.2 °F 60.8 °F 83% 29.96 in 5.0 mi South 23.0 mph - N/A   Haze
9:15 AM 66.2 °F 60.8 °F 83% 29.97 in 6.0 mi South 21.9 mph - N/A   Haze
9:35 AM 66.2 °F 60.8 °F 83% 29.96 in 5.0 mi South 24.2 mph - N/A   Haze
9:55 AM 66.2 °F 60.8 °F 83% 29.96 in 5.0 mi South 25.3 mph - N/A   Haze
10:15 AM 66.2 °F 60.8 °F 83% 29.95 in 5.0 mi South 26.5 mph - N/A   Haze
10:55 AM 66.2 °F 60.8 °F 83% 29.95 in 5.0 mi South 25.3 mph 32.2 mph N/A   Haze
11:15 AM 66.2 °F 60.8 °F 83% 29.94 in 5.0 mi South 29.9 mph - N/A   Haze
11:35 AM 66.2 °F 60.8 °F 83% 29.92 in 6.0 mi South 31.1 mph - N/A   Haze
11:55 AM 66.2 °F 60.8 °F 83% 29.91 in 6.0 mi South 31.1 mph 36.8 mph N/A   Haze
12:15 PM 66.2 °F 60.8 °F 83% 29.90 in 6.0 mi South 31.1 mph - N/A   Haze
12:55 PM 66.2 °F 60.8 °F 83% 29.87 in 5.0 mi South 29.9 mph - N/A   Haze
1:15 PM 66.2 °F 60.8 °F 83% 29.86 in 5.0 mi South 27.6 mph 34.5 mph N/A   Haze
1:35 PM 66.2 °F 60.8 °F 83% 29.86 in 5.0 mi South 28.8 mph - N/A   Haze
1:55 PM 66.2 °F 60.8 °F 83% 29.85 in 5.0 mi South 28.8 mph - N/A   Haze
2:15 PM 66.2 °F 60.8 °F 83% 29.84 in 5.0 mi South 27.6 mph - N/A   Haze
2:35 PM 68.0 °F 60.8 °F 78% 29.84 in 5.0 mi South 26.5 mph 32.2 mph N/A   Haze
2:55 PM 66.2 °F 62.6 °F 88% 29.83 in 4.0 mi South 27.6 mph - N/A   Haze
3:15 PM 66.2 °F 62.6 °F 88% 29.82 in 4.0 mi SSE 26.5 mph - N/A   Haze
3:35 PM 66.2 °F 62.6 °F 88% 29.81 in 4.0 mi SSE 25.3 mph - N/A   Haze
3:55 PM 66.2 °F 62.6 °F 88% 29.81 in 4.0 mi SSE 25.3 mph - N/A   Haze
4:15 PM 68.0 °F 62.6 °F 83% 29.81 in 4.0 mi South 24.2 mph - N/A   Haze
4:35 PM 68.0 °F 62.6 °F 83% 29.81 in 4.0 mi SSE 23.0 mph - N/A   Haze
4:55 PM 68.0 °F 62.6 °F 83% 29.81 in 5.0 mi SSE 24.2 mph - N/A   Haze
5:15 PM 68.0 °F 62.6 °F 83% 29.81 in 5.0 mi SSE 24.2 mph - N/A   Haze
5:35 PM 68.0 °F 62.6 °F 83% 29.82 in 4.0 mi SSE 23.0 mph - N/A   Haze
5:55 PM 68.0 °F 62.6 °F 83% 29.82 in 4.0 mi South 23.0 mph - N/A   Haze
6:15 PM 68.0 °F 62.6 °F 83% 29.82 in 4.0 mi South 23.0 mph - N/A   Haze
6:35 PM 68.0 °F 62.6 °F 83% 29.82 in 4.0 mi South 23.0 mph - N/A   Haze
6:55 PM 68.0 °F 62.6 °F 83% 29.83 in 5.0 mi South 20.7 mph - N/A   Haze
7:15 PM 66.2 °F 62.6 °F 88% 29.83 in 5.0 mi SSE 23.0 mph - N/A   Haze
7:35 PM 66.2 °F 62.6 °F 88% 29.83 in 5.0 mi SSE 21.9 mph - N/A   Haze
7:55 PM 66.2 °F 62.6 °F 88% 29.84 in 5.0 mi SSE 21.9 mph - N/A   Haze
8:35 PM 66.2 °F 62.6 °F 88% 29.84 in 5.0 mi SSE 23.0 mph - N/A   Haze
8:55 PM 66.2 °F 62.6 °F 88% 29.84 in 5.0 mi SSE 23.0 mph - N/A   Haze
9:15 PM 66.2 °F 62.6 °F 88% 29.85 in 4.0 mi SSE 20.7 mph - N/A   Clear
9:35 PM 66.2 °F 62.6 °F 88% 29.86 in 5.0 mi South 20.7 mph - N/A   Clear
9:55 PM 66.2 °F 62.6 °F 88% 29.86 in 5.0 mi South 20.7 mph - N/A   Clear
10:15 PM 66.2 °F 62.6 °F 88% 29.87 in - South 20.7 mph - N/A   Clear
10:35 PM 66.2 °F 62.6 °F 88% 29.87 in 5.0 mi SSE 21.9 mph - N/A   Haze
10:55 PM 66.2 °F 62.6 °F 88% 29.87 in 5.0 mi South 23.0 mph - N/A   Haze
11:15 PM 66.2 °F 62.6 °F 88% 29.87 in 5.0 mi South 21.9 mph - N/A   Haze
11:35 PM 66.2 °F 62.6 °F 88% 29.87 in 5.0 mi South 21.9 mph - N/A   Haze
11:55 PM 66.2 °F 62.6 °F 88% 29.86 in 4.0 mi South 20.7 mph - N/A   Scattered Clouds